Regional Weather Roundup
Issued by NWS

Home | Current Version | Previous Version | Graphics & Text | Print | Product List | Glossary On
Versions: 1 2 3 4 5 6 7 8 9 10 11 12 13 14 15 16 17 18 19 20 21 22 23 24 25 26 27 28 29 30 31 32 33 34 35 36 37 38 39 40 41 42 43 44 45 46 47 48 49 50
000
ASUS45 KBOI 292110
RWRID
WEATHER ROUNDUP FOR IDAHO
NATIONAL WEATHER SERVICE BOISE ID
200 PM MST THU JAN 29 2015

NOTE: "FAIR" INDICATES FEW OR NO CLOUDS BELOW 12000 FEET
WITH NO SIGNIFICANT WEATHER AND/OR OBSTRUCTIONS TO VISIBILITY

IDZ012-014-292200-
SOUTHWEST IDAHO


CITY           SKY/WX    TMP DP  RH WIND       PRES   REMARKS
BOISE          CLOUDY    44  33  65 E3        30.38F
CALDWELL       CLOUDY    45  32  61 SE8       30.40F
MOUNTAIN HOME  PTSUNNY   43  36  75 S8        30.36F
$$

IDZ016-017-292200-
SOUTHCENTRAL IDAHO


CITY           SKY/WX    TMP DP  RH WIND       PRES   REMARKS
BURLEY         FAIR      42  32  67 E12       30.32F
JEROME         FAIR      44  34  67 E13       30.33F
TWIN FALLS     FAIR      43  34  70 NE14      30.32F
$$

IDZ019>023-292200-
SOUTHEAST IDAHO


CITY           SKY/WX    TMP DP  RH WIND       PRES   REMARKS
IDAHO FALLS    PTSUNNY   39  31  72 N13       30.36F WCI  31
POCATELLO      MOSUNNY   44  35  70 VRB5      30.35F
REXBURG        PTSUNNY   36  28  73 E7        30.37F WCI  30
$$

IDZ006-010-011-018-031-032-292200-
CENTRAL IDAHO MOUNTAINS


CITY           SKY/WX    TMP DP  RH WIND       PRES   REMARKS
MCCALL         FAIR      36  28  73 W5        30.32F WCI  32
HAILEY         MOSUNNY   34  30  86 E12       30.35F WCI  25
STANLEY          N/A     24  18  77 CALM      30.34F
SALMON         PTSUNNY   27  23  86 CALM      30.41F
CHALLIS        CLOUDY    31  25  78 CALM      30.39F
$$

IDZ002-004-006-007-026-292200-
NORTHERN IDAHO


CITY           SKY/WX    TMP DP  RH WIND       PRES   REMARKS
LEWISTON       CLOUDY    39  35  86 W6        30.40F WCI  35
LOWELL           N/A     44  33  65 N3        30.40F
COEUR D`ALENE  FAIR      37  32  81 N9        30.38F WCI  31
MULLAN PASS    FAIR      35  16  45 CALM      30.29F
$$


USA.gov is the U.S. government's official web portal to all federal, state and local government web resources and services.